Date String (YYYY-MM-DD hh:mm:ss) UTC,Instrument flags,Ambient pressure (hPa),Sample flow (lpm),Bypass flow (lpm),Sample temperature (°C),Ambient temperature (°C),ASC tube jacket temperature (°C),LED temperature (°C),Box temperature (°C),Sample RH (%),Span deviation,Mass concentration (μg/m³),Mass concentration (μg/m³),Mass concentration (μg/m³)
DateTimeUTC,F1_M11,P_M11,Q1_M11,Q2_M11,T1_M11,T2_M11,T3_M11,T4_M11,T5_M11,U1_M11,ZSPAN_M11,X0_M11,X2_M11,X1_M11
2023-01-16 02:00:00,,0809.3,4.99,0.00,23.3,21.6,00.0,32.3,25.0,18.9,0000.0,0008.35,0002.71,0002.12
2023-01-16 02:01:00,,0809.3,5.01,0.00,23.3,21.5,00.0,32.3,25.0,19.0,0000.0,0008.28,0002.71,0002.11
2023-01-16 02:02:00,,0809.3,5.01,0.00,23.2,21.5,00.0,32.2,25.0,19.1,0000.0,0008.14,0002.69,0002.11
2023-01-16 02:03:00,,0809.3,4.99,0.00,23.2,21.5,00.0,32.2,24.9,19.2,0000.0,0008.19,0002.72,0002.10
2023-01-16 02:04:00,,0809.4,5.00,0.00,23.2,21.4,00.0,32.2,24.9,19.3,0000.0,0008.19,0002.70,0002.08
2023-01-16 02:05:00,,0809.4,4.99,0.00,23.2,21.5,00.0,32.2,24.9,19.4,0000.0,0008.13,0002.64,0002.05
2023-01-16 02:06:00,,0809.4,5.00,0.00,23.2,21.5,00.0,32.2,24.9,19.5,0000.0,0008.03,0002.58,0002.04
2023-01-16 02:07:00,,0809.4,5.00,0.00,23.2,21.6,00.0,32.2,24.9,19.6,0000.0,0007.77,0002.52,0002.03
2023-01-16 02:08:00,,0809.4,5.00,0.00,23.1,21.5,00.0,32.1,24.9,19.6,0000.0,0006.07,0002.43,0002.02
2023-01-16 02:09:00,,0809.4,5.00,0.00,23.1,21.5,00.0,32.1,24.9,19.7,0000.0,0004.44,0002.33,0002.02
2023-01-16 02:10:00,,0809.4,5.00,0.00,23.1,21.6,00.0,32.1,24.9,19.7,0000.0,0003.10,0002.26,0002.01
2023-01-16 02:11:00,,0809.4,5.00,0.00,23.1,21.6,00.0,32.1,24.9,19.8,0000.0,0003.08,0002.25,0002.01
2023-01-16 02:12:00,,0809.4,5.01,0.00,23.1,21.6,00.0,32.1,24.9,19.8,0000.0,0003.09,0002.25,0002.00
2023-01-16 02:13:00,,0809.4,4.99,0.00,23.1,21.6,00.0,32.1,24.8,19.8,0000.0,0003.21,0002.29,0002.01
2023-01-16 02:14:00,,0809.5,5.00,0.00,23.1,21.6,00.0,32.1,24.8,19.9,0000.0,0003.24,0002.31,0002.02
2023-01-16 02:15:00,,0809.5,5.01,0.00,23.1,21.6,00.0,32.1,24.8,19.9,0000.0,0003.23,0002.32,0002.03
2023-01-16 02:16:00,,0809.5,5.00,0.00,23.1,21.6,00.0,32.0,24.8,20.0,0000.0,0003.23,0002.32,0002.04
2023-01-16 02:17:00,,0809.5,5.00,0.00,23.1,21.7,00.0,32.0,24.8,20.0,0000.0,0003.30,0002.33,0002.05
2023-01-16 02:18:00,,0809.6,5.01,0.00,23.1,21.7,00.0,32.0,24.8,20.0,0000.0,0003.37,0002.36,0002.06
2023-01-16 02:19:00,,0809.6,5.00,0.00,23.1,21.7,00.0,32.0,24.8,20.1,0000.0,0003.34,0002.38,0002.08
2023-01-16 02:20:00,,0809.5,4.99,0.00,23.1,21.7,00.0,32.0,24.8,20.2,0000.0,0003.39,0002.39,0002.10
2023-01-16 02:21:00,,0809.5,5.00,0.00,23.1,21.7,00.0,32.0,24.8,20.3,0000.0,0004.33,0002.40,0002.10
2023-01-16 02:22:00,,0809.5,5.00,0.00,23.1,21.7,00.0,32.0,24.7,20.4,0000.0,0004.42,0002.46,0002.11
2023-01-16 02:23:00,,0809.5,5.02,0.00,23.0,21.7,00.0,32.0,24.8,20.4,0000.0,0004.38,0002.46,0002.12
2023-01-16 02:24:00,,0809.5,5.00,0.00,23.0,21.6,00.0,32.0,24.8,20.4,0000.0,0004.29,0002.43,0002.11
2023-01-16 02:25:00,,0809.5,4.99,0.00,23.0,21.6,00.0,32.0,24.8,20.4,0000.0,0004.19,0002.37,0002.09
2023-01-16 02:26:00,,0809.5,5.01,0.00,23.0,21.6,00.0,32.0,24.8,20.4,0000.0,0004.12,0002.33,0002.09
2023-01-16 02:27:00,,0809.6,4.99,0.00,23.0,21.6,00.0,32.0,24.8,20.4,0000.0,0004.11,0002.33,0002.08
2023-01-16 02:28:00,,0809.6,5.01,0.00,23.1,21.6,00.0,32.0,24.8,20.4,0000.0,0004.00,0002.30,0002.07
2023-01-16 02:29:00,,0809.5,5.00,0.00,23.0,21.7,00.0,32.0,24.8,20.4,0000.0,0003.95,0002.28,0002.06
2023-01-16 02:30:00,,0809.5,5.00,0.00,23.0,21.7,00.0,32.0,24.8,20.4,0000.0,0003.96,0002.28,0002.04
2023-01-16 02:31:00,,0809.5,5.00,0.00,23.1,21.7,00.0,32.0,24.8,20.4,0000.0,0003.98,0002.28,0002.02
2023-01-16 02:32:00,,0809.6,4.99,0.00,23.1,21.7,00.0,32.0,24.8,20.5,0000.0,0003.09,0002.30,0002.02
2023-01-16 02:33:00,,0809.5,5.00,0.00,23.1,21.7,00.0,32.0,24.8,20.5,0000.0,0002.95,0002.28,0002.02
2023-01-16 02:34:00,,0809.6,5.00,0.00,23.0,21.7,00.0,32.0,24.8,20.5,0000.0,0002.93,0002.29,0002.01
2023-01-16 02:35:00,,0809.5,5.00,0.00,23.0,21.7,00.0,31.9,24.8,20.6,0000.0,0002.90,0002.28,0002.02
2023-01-16 02:36:00,,0809.5,5.01,0.00,23.0,21.7,00.0,31.9,24.8,20.6,0000.0,0002.93,0002.30,0002.03
2023-01-16 02:37:00,,0809.6,4.99,0.00,23.0,21.7,00.0,31.9,24.8,20.6,0000.0,0003.03,0002.31,0002.02
2023-01-16 02:38:00,,0809.5,5.01,0.00,23.0,21.7,00.0,31.9,24.8,20.6,0000.0,0003.12,0002.33,0002.02
2023-01-16 02:39:00,,0809.5,5.00,0.00,23.0,21.7,00.0,31.9,24.8,20.6,0000.0,0003.21,0002.36,0002.02
2023-01-16 02:40:00,,0809.5,4.99,0.00,23.0,21.7,00.0,31.9,24.8,20.6,0000.0,0003.34,0002.41,0002.02
2023-01-16 02:41:00,,0809.5,5.01,0.00,23.0,21.7,00.0,31.9,24.8,20.6,0000.0,0003.35,0002.40,0002.02
2023-01-16 02:42:00,,0809.4,5.00,0.00,23.0,21.6,00.0,31.9,24.7,20.6,0000.0,0003.36,0002.40,0002.01
2023-01-16 02:43:00,,0809.5,5.00,0.00,23.0,21.6,00.0,31.9,24.7,20.6,0000.0,0003.38,0002.40,0002.01
2023-01-16 02:44:00,,0809.5,5.01,0.00,23.0,21.6,00.0,31.9,24.7,20.6,0000.0,0003.34,0002.39,0002.01
2023-01-16 02:45:00,,0809.4,5.00,0.00,23.0,21.6,00.0,31.9,24.7,20.7,0000.0,0003.26,0002.35,0002.00
2023-01-16 02:46:00,,0809.4,5.00,0.00,23.0,21.6,00.0,31.9,24.7,20.7,0000.0,0003.28,0002.34,0001.97
2023-01-16 02:47:00,,0809.4,5.00,0.00,23.0,21.6,00.0,31.9,24.7,20.7,0000.0,0003.21,0002.30,0001.95
2023-01-16 02:48:00,,0809.5,5.00,0.00,23.0,21.6,00.0,31.9,24.6,20.6,0000.0,0003.16,0002.28,0001.93
2023-01-16 02:49:00,,0809.4,5.00,0.00,23.0,21.6,00.0,31.9,24.7,20.6,0000.0,0003.08,0002.27,0001.93
2023-01-16 02:50:00,,0809.4,5.00,0.00,23.0,21.6,00.0,31.9,24.7,20.6,0000.0,0003.05,0002.27,0001.93
2023-01-16 02:51:00,,0809.4,5.00,0.00,23.0,21.6,00.0,31.9,24.6,20.6,0000.0,0002.95,0002.24,0001.92
2023-01-16 02:52:00,,0809.4,5.01,0.00,23.0,21.6,00.0,31.9,24.7,20.6,0000.0,0002.98,0002.22,0001.92
2023-01-16 02:53:00,,0809.4,5.00,0.00,23.0,21.6,00.0,31.9,24.6,20.6,0000.0,0003.26,0002.21,0001.92
2023-01-16 02:54:00,,0809.4,4.99,0.00,23.0,21.6,00.0,31.9,24.6,20.6,0000.0,0003.14,0002.18,0001.93
2023-01-16 02:55:00,,0809.4,5.00,0.00,23.0,21.6,00.0,31.9,24.6,20.6,0000.0,0003.19,0002.19,0001.93
2023-01-16 02:56:00,,0809.5,5.00,0.00,22.9,21.6,00.0,31.9,24.6,20.7,0000.0,0003.19,0002.20,0001.95
2023-01-16 02:57:00,,0809.4,5.00,0.00,22.9,21.6,00.0,31.9,24.6,20.7,0000.0,0003.19,0002.22,0001.98
2023-01-16 02:58:00,,0809.4,5.00,0.00,22.9,21.6,00.0,31.9,24.6,20.7,0000.0,0003.75,0002.25,0002.02
2023-01-16 02:59:00,,0809.4,5.00,0.00,22.9,21.5,00.0,31.9,24.6,20.7,0000.0,0003.97,0002.28,0002.04
